Date String (YYYY-MM-DD hh:mm:ss) UTC,Instrument flags,Ambient pressure (hPa),Sample flow (lpm),Bypass flow (lpm),Sample temperature (°C),Ambient temperature (°C),ASC tube jacket temperature (°C),LED temperature (°C),Box temperature (°C),Sample RH (%),Span deviation,Mass concentration (μg/m³),Mass concentration (μg/m³),Mass concentration (μg/m³)
DateTimeUTC,F1_M11,P_M11,Q1_M11,Q2_M11,T1_M11,T2_M11,T3_M11,T4_M11,T5_M11,U1_M11,ZSPAN_M11,X2_M11,X0_M11,X1_M11
2022-03-21 06:00:00,,0817.4,4.99,0.00,28.2,27.3,00.0,37.3,29.9,08.2,0000.0,0003.95,0009.39,0002.24
2022-03-21 06:01:00,,0817.3,5.00,0.00,28.2,27.3,00.0,37.3,29.9,08.2,0000.0,0003.95,0009.37,0002.23
2022-03-21 06:02:00,,0817.3,5.01,0.00,28.2,27.3,00.0,37.3,29.9,08.2,0000.0,0003.93,0009.37,0002.22
2022-03-21 06:03:00,,0817.3,5.00,0.00,28.2,27.3,00.0,37.3,29.9,08.3,0000.0,0003.93,0009.46,0002.21
2022-03-21 06:04:00,,0817.3,5.00,0.00,28.2,27.3,00.0,37.3,30.0,08.3,0000.0,0003.97,0010.02,0002.23
2022-03-21 06:05:00,,0817.4,5.01,0.00,28.2,27.3,00.0,37.3,30.0,08.3,0000.0,0003.99,0010.45,0002.23
2022-03-21 06:06:00,,0817.3,5.00,0.00,28.2,27.3,00.0,37.3,30.0,08.3,0000.0,0003.98,0010.32,0002.22
2022-03-21 06:07:00,,0817.4,4.99,0.00,28.2,27.3,00.0,37.3,29.9,08.3,0000.0,0003.96,0010.25,0002.21
2022-03-21 06:08:00,,0817.4,5.01,0.00,28.2,27.3,00.0,37.3,29.9,08.4,0000.0,0003.95,0011.35,0002.21
2022-03-21 06:09:00,,0817.4,5.00,0.00,28.2,27.3,00.0,37.3,30.0,08.3,0000.0,0003.97,0011.36,0002.21
2022-03-21 06:10:00,,0817.4,4.99,0.00,28.3,27.3,00.0,37.3,30.0,08.3,0000.0,0004.00,0011.31,0002.19
2022-03-21 06:11:00,,0817.5,5.01,0.00,28.3,27.3,00.0,37.3,30.0,08.6,0000.0,0004.04,0012.13,0002.19
2022-03-21 06:12:00,,0817.6,4.99,0.00,28.2,27.3,00.0,37.3,30.0,09.6,0000.0,0004.08,0012.52,0002.23
2022-03-21 06:13:00,,0817.6,5.01,0.00,28.2,27.2,00.0,37.3,29.9,10.0,0000.0,0004.11,0012.98,0002.26
2022-03-21 06:14:00,,0817.6,5.01,0.00,28.2,27.2,00.0,37.2,29.8,10.2,0000.0,0004.14,0012.99,0002.30
2022-03-21 06:15:00,,0817.6,4.99,0.00,28.1,27.2,00.0,37.2,29.8,10.5,0000.0,0004.10,0012.49,0002.33
2022-03-21 06:16:00,,0817.6,5.00,0.00,28.1,27.1,00.0,37.2,29.8,10.5,0000.0,0004.13,0013.41,0002.36
2022-03-21 06:17:00,,0817.6,4.99,0.00,28.1,27.1,00.0,37.2,29.8,10.5,0000.0,0004.14,0014.07,0002.41
2022-03-21 06:18:00,,0817.5,5.01,0.00,28.1,27.1,00.0,37.2,29.8,10.3,0000.0,0004.21,0014.51,0002.46
2022-03-21 06:19:00,,0817.5,4.99,0.00,28.1,27.1,00.0,37.2,29.8,10.0,0000.0,0004.27,0013.65,0002.51
2022-03-21 06:20:00,,0817.5,5.01,0.00,28.1,27.1,00.0,37.2,29.9,09.8,0000.0,0004.25,0013.74,0002.54
2022-03-21 06:21:00,,0817.5,5.01,0.00,28.1,27.2,00.0,37.2,29.8,09.5,0000.0,0004.27,0013.91,0002.56
2022-03-21 06:22:00,,0817.4,4.99,0.00,28.1,27.2,00.0,37.2,29.9,09.5,0000.0,0004.28,0013.09,0002.59
2022-03-21 06:23:00,,0817.5,4.99,0.00,28.1,27.2,00.0,37.2,29.8,09.3,0000.0,0004.24,0012.64,0002.59
2022-03-21 06:24:00,,0817.5,5.01,0.00,28.1,27.2,00.0,37.2,29.9,09.4,0000.0,0004.29,0012.47,0002.59
2022-03-21 06:25:00,,0817.4,5.00,0.00,28.1,27.2,00.0,37.2,29.8,09.4,0000.0,0004.28,0012.45,0002.58
2022-03-21 06:26:00,,0817.4,5.00,0.00,28.1,27.2,00.0,37.2,29.8,09.3,0000.0,0004.34,0012.62,0002.57
2022-03-21 06:27:00,,0817.4,5.01,0.00,28.1,27.2,00.0,37.2,29.8,09.2,0000.0,0004.38,0012.02,0002.58
2022-03-21 06:28:00,,0817.4,4.99,0.00,28.1,27.2,00.0,37.1,29.8,09.1,0000.0,0004.41,0011.92,0002.58
2022-03-21 06:29:00,,0817.4,5.00,0.00,28.1,27.2,00.0,37.1,29.8,09.1,0000.0,0004.35,0011.02,0002.54
2022-03-21 06:30:00,,0817.4,5.01,0.00,28.1,27.1,00.0,37.1,29.8,09.2,0000.0,0004.29,0010.81,0002.51
2022-03-21 06:31:00,,0817.4,4.98,0.00,28.1,27.1,00.0,37.1,29.8,09.1,0000.0,0004.29,0010.67,0002.49
2022-03-21 06:32:00,,0817.4,5.00,0.00,28.1,27.1,00.0,37.1,29.8,09.0,0000.0,0004.30,0010.68,0002.49
2022-03-21 06:33:00,,0817.4,5.01,0.00,28.1,27.2,00.0,37.1,29.9,08.9,0000.0,0004.30,0010.54,0002.47
2022-03-21 06:34:00,,0817.4,5.00,0.00,28.1,27.1,00.0,37.1,29.9,09.1,0000.0,0004.33,0010.82,0002.45
2022-03-21 06:35:00,,0817.4,5.01,0.00,28.1,27.1,00.0,37.1,29.9,09.2,0000.0,0004.25,0011.19,0002.41
2022-03-21 06:36:00,,0817.5,5.01,0.00,28.1,27.1,00.0,37.1,29.9,09.2,0000.0,0004.25,0011.16,0002.40
2022-03-21 06:37:00,,0817.5,4.99,0.00,28.1,27.1,00.0,37.1,29.9,09.2,0000.0,0004.21,0010.98,0002.37
2022-03-21 06:38:00,,0817.5,5.02,0.00,28.1,27.1,00.0,37.1,29.9,09.2,0000.0,0004.16,0010.52,0002.34
2022-03-21 06:39:00,,0817.5,4.99,0.00,28.1,27.1,00.0,37.1,29.9,09.4,0000.0,0004.08,0009.69,0002.31
2022-03-21 06:40:00,,0817.5,5.00,0.00,28.1,27.1,00.0,37.1,29.8,09.3,0000.0,0004.09,0009.75,0002.30
2022-03-21 06:41:00,,0817.5,4.99,0.00,28.1,27.1,00.0,37.1,29.8,09.4,0000.0,0004.13,0010.01,0002.30
2022-03-21 06:42:00,,0817.4,5.00,0.00,28.1,27.1,00.0,37.1,29.8,09.3,0000.0,0004.15,0010.49,0002.31
2022-03-21 06:43:00,,0817.4,5.01,0.00,28.1,27.1,00.0,37.1,29.8,09.3,0000.0,0004.10,0010.29,0002.30
2022-03-21 06:44:00,,0817.5,4.99,0.00,28.1,27.1,00.0,37.1,29.8,09.4,0000.0,0004.05,0010.24,0002.30
2022-03-21 06:45:00,,0817.4,5.00,0.00,28.1,27.1,00.0,37.1,29.8,09.4,0000.0,0003.98,0010.02,0002.30
2022-03-21 06:46:00,,0817.5,5.00,0.00,28.1,27.1,00.0,37.1,29.8,09.4,0000.0,0003.99,0009.37,0002.32
2022-03-21 06:47:00,,0817.5,5.00,0.00,28.1,27.1,00.0,37.1,29.8,09.4,0000.0,0003.94,0009.05,0002.32
2022-03-21 06:48:00,,0817.5,4.99,0.00,28.1,27.1,00.0,37.1,29.8,09.5,0000.0,0003.92,0009.07,0002.34
2022-03-21 06:49:00,,0817.5,5.00,0.00,28.1,27.1,00.0,37.1,29.8,09.5,0000.0,0003.88,0009.20,0002.35
2022-03-21 06:50:00,,0817.5,5.01,0.00,28.1,27.1,00.0,37.1,29.8,09.5,0000.0,0003.94,0009.39,0002.37
2022-03-21 06:51:00,,0817.6,4.99,0.00,28.1,27.1,00.0,37.1,29.8,09.5,0000.0,0003.99,0009.54,0002.39
2022-03-21 06:52:00,,0817.6,5.01,0.00,28.0,27.0,00.0,37.1,29.8,09.6,0000.0,0004.03,0009.51,0002.38
2022-03-21 06:53:00,,0817.6,5.00,0.00,28.0,27.1,00.0,37.1,29.8,09.6,0000.0,0004.06,0009.31,0002.38
2022-03-21 06:54:00,,0817.6,5.00,0.00,28.0,27.0,00.0,37.1,29.8,09.5,0000.0,0004.06,0009.36,0002.37
2022-03-21 06:55:00,,0817.6,4.99,0.00,28.0,27.0,00.0,37.1,29.8,09.5,0000.0,0004.07,0009.40,0002.37
2022-03-21 06:56:00,,0817.7,5.00,0.00,28.0,27.0,00.0,37.1,29.8,09.5,0000.0,0004.11,0009.56,0002.38
2022-03-21 06:57:00,,0817.7,5.02,0.00,28.0,27.0,00.0,37.0,29.8,09.5,0000.0,0004.15,0009.70,0002.38
2022-03-21 06:58:00,,0817.7,4.99,0.00,28.0,27.0,00.0,37.0,29.7,09.6,0000.0,0004.21,0009.85,0002.37
2022-03-21 06:59:00,,0817.7,5.01,0.00,28.0,27.0,00.0,37.0,29.7,09.6,0000.0,0004.19,0009.83,0002.37
